TimeEST,TemperatureF,Dew PointF,Humidity,Sea Level PressureIn,VisibilityMPH,Wind Direction,Wind SpeedMPH,Gust SpeedMPH,PrecipitationIn,Events,Conditions,WindDirDegrees,DateUTC
12:53 AM,24.1,18.0,77,30.23,10.0,South,4.6,-,N/A,,Clear,170,2013-12-28 05:53:00
1:53 AM,21.9,18.0,85,30.22,10.0,South,4.6,-,N/A,,Clear,180,2013-12-28 06:53:00
2:53 AM,21.0,16.0,81,30.22,10.0,Calm,Calm,-,N/A,,Clear,0,2013-12-28 07:53:00
3:53 AM,19.9,17.1,89,30.20,10.0,SSE,3.5,-,N/A,,Clear,160,2013-12-28 08:53:00
4:53 AM,23.0,18.0,81,30.19,10.0,Calm,Calm,-,N/A,,Clear,0,2013-12-28 09:53:00
5:53 AM,21.0,18.0,88,30.17,10.0,South,5.8,-,N/A,,Clear,180,2013-12-28 10:53:00
6:53 AM,27.0,21.9,81,30.14,10.0,South,6.9,-,N/A,,Clear,170,2013-12-28 11:53:00
7:53 AM,28.0,21.9,78,30.14,10.0,South,4.6,-,N/A,,Clear,170,2013-12-28 12:53:00
8:53 AM,34.0,25.0,70,30.13,10.0,SW,6.9,-,N/A,,Clear,220,2013-12-28 13:53:00
9:53 AM,37.9,26.1,62,30.13,10.0,SSW,4.6,-,N/A,,Partly Cloudy,200,2013-12-28 14:53:00
10:53 AM,44.1,26.1,49,30.09,10.0,SW,9.2,-,N/A,,Scattered Clouds,220,2013-12-28 15:53:00
11:53 AM,44.1,26.1,49,30.07,10.0,WSW,12.7,24.2,N/A,,Overcast,240,2013-12-28 16:53:00
12:53 PM,46.0,25.0,44,30.03,10.0,WSW,15.0,26.5,N/A,,Partly Cloudy,240,2013-12-28 17:53:00
1:53 PM,48.0,24.1,39,30.01,10.0,West,12.7,-,N/A,,Clear,260,2013-12-28 18:53:00
2:53 PM,48.0,24.1,39,30.01,10.0,SW,11.5,-,N/A,,Clear,230,2013-12-28 19:53:00
3:53 PM,46.0,24.1,42,30.02,10.0,WSW,5.8,-,N/A,,Clear,240,2013-12-28 20:53:00
4:53 PM,39.0,24.1,55,30.04,10.0,Calm,Calm,-,N/A,,Clear,0,2013-12-28 21:53:00
5:53 PM,30.0,24.1,79,30.07,10.0,Calm,Calm,-,N/A,,Clear,0,2013-12-28 22:53:00
6:53 PM,28.0,23.0,81,30.07,10.0,Calm,Calm,-,N/A,,Clear,0,2013-12-28 23:53:00
7:53 PM,27.0,23.0,85,30.09,10.0,Calm,Calm,-,N/A,,Clear,0,2013-12-29 00:53:00
8:53 PM,25.0,21.9,88,30.09,10.0,Calm,Calm,-,N/A,,Clear,0,2013-12-29 01:53:00
9:53 PM,26.1,23.0,88,30.07,10.0,Calm,Calm,-,N/A,,Clear,0,2013-12-29 02:53:00
10:53 PM,26.1,23.0,88,30.06,10.0,Calm,Calm,-,N/A,,Clear,0,2013-12-29 03:53:00
11:53 PM,23.0,21.0,92,30.04,10.0,Calm,Calm,-,N/A,,Clear,0,2013-12-29 04:53:00